Location: Berlise
(49.6641°N, 4.1077°E)
Time: 02:21:09
(UTC+00:00)

Cosmos 1603 - Pass Details

Date: 27 January 2021
Orbit: 829 x 861 km, 71.0° (Epoch: 28 February)

Event Time Altitude Azimuth Distance (km) Brightness Sun altitude
Rises 06:14:05 0° 196° (SSW) 3,363 6.8 -11.1°
Reaches altitude 10° 06:16:31 10° 194° (SSW) 2,436 6.1 -10.7°
Maximum altitude 06:22:02 65° 113° (ESE) 919 4.2 -9.9°
Drops below altitude 10° 06:27:38 10° 33° (NNE) 2,471 6.3 -9.0°
Sets 06:30:06 0° 31° (NNE) 3,415 7.0 -8.6°
